Time,TemperatureF,DewpointF,PressureIn,WindDirection,WindDirectionDegrees,WindSpeedMPH,WindSpeedGustMPH,Humidity,HourlyPrecipIn,Conditions,Clouds,dailyrainin,SoftwareType,DateUTC
2013-12-09 00:03:00,34.2,33.9,30.11,NW,315,0.0,-999.0,99,-99.99,,,0.00,Acu-Link.com,2013-12-09 05:03:00,
2013-12-09 00:18:00,34.2,33.9,30.10,North,0,0.0,-999.0,99,-99.99,,,0.00,Acu-Link.com,2013-12-09 05:18:00,
2013-12-09 00:33:00,34.2,33.9,30.09,East,90,1.1,-999.0,99,-99.99,,,0.00,Acu-Link.com,2013-12-09 05:33:00,
2013-12-09 00:48:00,34.2,33.9,30.09,ESE,112,2.2,-999.0,99,-99.99,,,0.00,Acu-Link.com,2013-12-09 05:48:00,
2013-12-09 01:03:00,34.2,33.9,30.08,ESE,112,0.0,-999.0,99,-99.99,,,0.00,Acu-Link.com,2013-12-09 06:03:00,
2013-12-09 01:18:00,34.2,33.9,30.08,NNE,22,0.0,-999.0,99,-99.99,,,0.00,Acu-Link.com,2013-12-09 06:18:00,
2013-12-09 01:34:00,34.3,34.0,30.08,NNE,22,0.0,-999.0,99,-99.99,,,0.00,Acu-Link.com,2013-12-09 06:34:00,
2013-12-09 01:49:00,34.3,34.0,30.08,NNE,22,0.0,-999.0,99,-99.99,,,0.00,Acu-Link.com,2013-12-09 06:49:00,
2013-12-09 02:04:00,34.3,34.0,30.08,WNW,292,0.0,-999.0,99,-99.99,,,0.00,Acu-Link.com,2013-12-09 07:04:00,
2013-12-09 02:19:00,34.3,34.0,30.07,SE,135,1.7,-999.0,99,-99.99,,,0.00,Acu-Link.com,2013-12-09 07:19:00,
2013-12-09 02:34:00,34.2,33.9,30.07,NW,315,3.2,-999.0,99,-99.99,,,0.00,Acu-Link.com,2013-12-09 07:34:00,
2013-12-09 02:49:00,34.3,34.0,30.09,NW,315,1.7,-999.0,99,-99.99,,,0.00,Acu-Link.com,2013-12-09 07:49:00,
2013-12-09 03:05:00,34.5,34.2,30.08,West,270,0.0,-999.0,99,-99.99,,,0.00,Acu-Link.com,2013-12-09 08:05:00,
2013-12-09 03:20:00,34.7,34.4,30.06,East,90,0.0,-999.0,99,-99.99,,,0.00,Acu-Link.com,2013-12-09 08:20:00,
2013-12-09 03:35:00,34.5,34.2,30.05,East,90,1.7,-999.0,99,-99.99,,,0.00,Acu-Link.com,2013-12-09 08:35:00,
2013-12-09 03:50:00,34.5,34.2,30.04,ESE,112,2.7,-999.0,99,-99.99,,,0.00,Acu-Link.com,2013-12-09 08:50:00,
2013-12-09 04:05:00,34.5,34.2,30.02,East,90,0.0,-999.0,99,-99.99,,,0.00,Acu-Link.com,2013-12-09 09:05:00,
2013-12-09 04:21:00,34.5,34.2,30.01,ENE,67,3.2,-999.0,99,-99.99,,,0.00,Acu-Link.com,2013-12-09 09:21:00,
2013-12-09 04:36:00,34.5,34.2,30.02,SSE,157,0.0,-999.0,99,-99.99,,,0.00,Acu-Link.com,2013-12-09 09:36:00,
2013-12-09 04:51:00,34.7,34.4,30.04,NNW,337,0.0,-999.0,99,-99.99,,,0.00,Acu-Link.com,2013-12-09 09:51:00,
2013-12-09 05:21:00,35.1,34.8,30.04,WNW,292,0.0,-999.0,99,-99.99,,,0.00,Acu-Link.com,2013-12-09 10:21:00,
2013-12-09 05:37:00,35.1,34.8,30.04,North,0,0.0,-999.0,99,-99.99,,,0.00,Acu-Link.com,2013-12-09 10:37:00,
2013-12-09 05:52:00,35.2,34.9,30.02,ESE,112,0.0,-999.0,99,-99.99,,,0.00,Acu-Link.com,2013-12-09 10:52:00,
2013-12-09 06:07:00,35.2,34.9,30.03,NNW,337,0.0,-999.0,99,-99.99,,,0.01,Acu-Link.com,2013-12-09 11:07:00,
2013-12-09 06:22:00,35.6,35.3,30.02,ESE,112,0.0,-999.0,99,-99.99,,,0.01,Acu-Link.com,2013-12-09 11:22:00,
2013-12-09 06:37:00,35.4,35.1,30.02,East,90,0.0,-999.0,99,-99.99,,,0.01,Acu-Link.com,2013-12-09 11:37:00,
2013-12-09 06:53:00,35.4,35.1,30.02,ESE,112,0.0,-999.0,99,-99.99,,,0.01,Acu-Link.com,2013-12-09 11:53:00,
2013-12-09 07:08:00,35.6,35.3,30.00,South,180,2.7,-999.0,99,-99.99,,,0.01,Acu-Link.com,2013-12-09 12:08:00,
2013-12-09 07:23:00,35.6,35.3,30.01,NNW,337,0.0,-999.0,99,-99.99,,,0.01,Acu-Link.com,2013-12-09 12:23:00,
2013-12-09 07:38:00,35.8,35.5,30.02,SSW,202,0.0,-999.0,99,-99.99,,,0.01,Acu-Link.com,2013-12-09 12:38:00,
2013-12-09 07:53:00,36.0,35.7,30.01,ESE,112,0.0,-999.0,99,-99.99,,,0.01,Acu-Link.com,2013-12-09 12:53:00,
2013-12-09 08:09:00,36.1,35.8,30.01,ESE,112,0.0,-999.0,99,-99.99,,,0.01,Acu-Link.com,2013-12-09 13:09:00,
2013-12-09 08:24:00,36.1,35.8,30.01,SSW,202,0.0,-999.0,99,-99.99,,,0.01,Acu-Link.com,2013-12-09 13:24:00,
2013-12-09 08:39:00,36.5,36.2,30.01,SE,135,0.0,-999.0,99,-99.99,,,0.01,Acu-Link.com,2013-12-09 13:39:00,
2013-12-09 08:54:00,36.7,36.4,30.01,SE,135,0.0,-999.0,99,-99.99,,,0.01,Acu-Link.com,2013-12-09 13:54:00,
2013-12-09 09:09:00,37.2,36.9,30.01,ESE,112,0.0,-999.0,99,-99.99,,,0.01,Acu-Link.com,2013-12-09 14:09:00,
2013-12-09 09:24:00,37.4,37.1,30.03,West,270,0.0,-999.0,99,-99.99,,,0.01,Acu-Link.com,2013-12-09 14:24:00,
2013-12-09 09:40:00,37.8,37.5,30.03,North,0,0.0,-999.0,99,-99.99,,,0.01,Acu-Link.com,2013-12-09 14:40:00,
2013-12-09 09:55:00,37.8,37.5,30.01,South,180,2.2,-999.0,99,-99.99,,,0.02,Acu-Link.com,2013-12-09 14:55:00,
2013-12-09 10:10:00,38.3,38.0,30.03,NNE,22,0.0,-999.0,99,-99.99,,,0.02,Acu-Link.com,2013-12-09 15:10:00,
2013-12-09 10:25:00,38.7,38.4,30.02,NNW,337,0.0,-999.0,99,-99.99,,,0.03,Acu-Link.com,2013-12-09 15:25:00,
2013-12-09 10:40:00,39.4,39.1,30.00,East,90,0.0,-999.0,99,-99.99,,,0.03,Acu-Link.com,2013-12-09 15:40:00,
2013-12-09 10:55:00,40.3,40.0,30.01,SSE,157,1.7,-999.0,99,-99.99,,,0.03,Acu-Link.com,2013-12-09 15:55:00,
2013-12-09 11:11:00,41.0,40.7,30.00,SSE,157,0.0,-999.0,99,-99.99,,,0.03,Acu-Link.com,2013-12-09 16:11:00,
2013-12-09 11:26:00,41.4,41.1,30.01,WSW,247,0.0,-999.0,99,-99.99,,,0.03,Acu-Link.com,2013-12-09 16:26:00,
2013-12-09 11:41:00,41.4,41.1,30.00,SSE,157,2.7,-999.0,99,-99.99,,,0.03,Acu-Link.com,2013-12-09 16:41:00,
2013-12-09 11:56:00,41.4,41.1,29.99,NW,315,2.7,-999.0,99,-99.99,,,0.04,Acu-Link.com,2013-12-09 16:56:00,
2013-12-09 12:11:00,41.4,41.1,29.98,SSW,202,1.7,-999.0,99,-99.99,,,0.06,Acu-Link.com,2013-12-09 17:11:00,
2013-12-09 12:26:00,41.5,41.2,29.98,WSW,247,0.0,-999.0,99,-99.99,,,0.07,Acu-Link.com,2013-12-09 17:26:00,
2013-12-09 12:41:00,41.9,41.6,29.97,West,270,0.0,-999.0,99,-99.99,,,0.07,Acu-Link.com,2013-12-09 17:41:00,
2013-12-09 12:56:00,42.1,41.8,29.96,West,270,0.0,-999.0,99,-99.99,,,0.07,Acu-Link.com,2013-12-09 17:56:00,
2013-12-09 13:11:00,42.3,42.0,29.95,NW,315,1.7,-999.0,99,-99.99,,,0.07,Acu-Link.com,2013-12-09 18:11:00,
2013-12-09 13:26:00,42.6,42.3,29.95,West,270,0.0,-999.0,99,-99.99,,,0.07,Acu-Link.com,2013-12-09 18:26:00,
2013-12-09 13:42:00,42.4,42.1,29.94,SSW,202,0.0,-999.0,99,-99.99,,,0.08,Acu-Link.com,2013-12-09 18:42:00,
2013-12-09 13:57:00,42.6,42.3,29.94,NW,315,0.0,-999.0,99,-99.99,,,0.10,Acu-Link.com,2013-12-09 18:57:00,
2013-12-09 14:12:00,43.2,42.9,29.92,SW,225,0.0,-999.0,99,-99.99,,,0.11,Acu-Link.com,2013-12-09 19:12:00,
2013-12-09 14:27:00,43.9,43.6,29.93,WNW,292,1.7,-999.0,99,-99.99,,,0.11,Acu-Link.com,2013-12-09 19:27:00,
2013-12-09 14:42:00,43.9,43.6,29.94,West,270,0.0,-999.0,99,-99.99,,,0.11,Acu-Link.com,2013-12-09 19:42:00,
2013-12-09 14:57:00,43.9,43.6,29.93,SSW,202,0.0,-999.0,99,-99.99,,,0.11,Acu-Link.com,2013-12-09 19:57:00,
2013-12-09 15:12:00,44.1,43.8,29.93,SSW,202,0.0,-999.0,99,-99.99,,,0.12,Acu-Link.com,2013-12-09 20:12:00,
2013-12-09 15:27:00,44.2,43.9,29.91,SSE,157,0.0,-999.0,99,-99.99,,,0.12,Acu-Link.com,2013-12-09 20:27:00,
2013-12-09 15:42:00,44.6,44.3,29.92,SSW,202,0.0,-999.0,99,-99.99,,,0.12,Acu-Link.com,2013-12-09 20:42:00,
2013-12-09 15:58:00,44.8,44.5,29.91,South,180,0.0,-999.0,99,-99.99,,,0.12,Acu-Link.com,2013-12-09 20:58:00,
2013-12-09 16:13:00,45.0,44.7,29.92,SSE,157,0.0,-999.0,99,-99.99,,,0.14,Acu-Link.com,2013-12-09 21:13:00,
2013-12-09 16:28:00,45.0,44.7,29.93,South,180,1.1,-999.0,99,-99.99,,,0.14,Acu-Link.com,2013-12-09 21:28:00,
2013-12-09 16:43:00,45.3,45.0,29.92,NE,45,0.0,-999.0,99,-99.99,,,0.14,Acu-Link.com,2013-12-09 21:43:00,
2013-12-09 16:58:00,45.3,45.0,29.93,ENE,67,0.0,-999.0,99,-99.99,,,0.16,Acu-Link.com,2013-12-09 21:58:00,
2013-12-09 17:13:00,45.5,45.2,29.93,ESE,112,0.0,-999.0,99,-99.99,,,0.21,Acu-Link.com,2013-12-09 22:13:00,
2013-12-09 17:28:00,45.5,45.2,29.93,South,180,0.0,-999.0,99,-99.99,,,0.22,Acu-Link.com,2013-12-09 22:28:00,
2013-12-09 17:43:00,45.5,45.2,29.93,NNW,337,0.0,-999.0,99,-99.99,,,0.24,Acu-Link.com,2013-12-09 22:43:00,
2013-12-09 17:58:00,45.7,45.4,29.93,NNW,337,0.0,-999.0,99,-99.99,,,0.24,Acu-Link.com,2013-12-09 22:58:00,
2013-12-09 18:14:00,45.7,45.4,29.93,NNE,22,0.0,-999.0,99,-99.99,,,0.24,Acu-Link.com,2013-12-09 23:14:00,
2013-12-09 18:29:00,45.7,45.4,29.94,NW,315,0.0,-999.0,99,-99.99,,,0.25,Acu-Link.com,2013-12-09 23:29:00,
2013-12-09 18:44:00,45.7,45.4,29.94,WSW,247,0.0,-999.0,99,-99.99,,,0.25,Acu-Link.com,2013-12-09 23:44:00,
2013-12-09 18:59:00,45.7,45.4,29.94,West,270,0.0,-999.0,99,-99.99,,,0.25,Acu-Link.com,2013-12-09 23:59:00,
2013-12-09 19:14:00,45.9,45.6,29.94,NNW,337,0.0,-999.0,99,-99.99,,,0.25,Acu-Link.com,2013-12-10 00:14:00,
2013-12-09 19:29:00,45.9,45.6,29.94,NNE,22,0.0,-999.0,99,-99.99,,,0.26,Acu-Link.com,2013-12-10 00:29:00,
2013-12-09 19:44:00,45.9,45.6,29.95,West,270,1.1,-999.0,99,-99.99,,,0.26,Acu-Link.com,2013-12-10 00:44:00,
2013-12-09 19:59:00,45.7,45.4,29.93,South,180,0.0,-999.0,99,-99.99,,,0.26,Acu-Link.com,2013-12-10 00:59:00,
2013-12-09 20:15:00,45.7,45.4,29.93,South,180,0.0,-999.0,99,-99.99,,,0.26,Acu-Link.com,2013-12-10 01:15:00,
2013-12-09 20:30:00,45.7,45.4,29.94,South,180,0.0,-999.0,99,-99.99,,,0.26,Acu-Link.com,2013-12-10 01:30:00,
2013-12-09 20:45:00,45.9,45.6,29.94,SW,225,0.0,-999.0,99,-99.99,,,0.26,Acu-Link.com,2013-12-10 01:45:00,
2013-12-09 21:00:00,45.9,45.6,29.94,West,270,0.0,-999.0,99,-99.99,,,0.26,Acu-Link.com,2013-12-10 02:00:00,
2013-12-09 21:15:00,45.9,45.6,29.93,WSW,247,0.0,-999.0,99,-99.99,,,0.26,Acu-Link.com,2013-12-10 02:15:00,
2013-12-09 21:31:00,45.9,45.6,29.93,WNW,292,0.0,-999.0,99,-99.99,,,0.26,Acu-Link.com,2013-12-10 02:31:00,
2013-12-09 21:47:00,45.9,45.6,29.93,SSE,157,0.0,-999.0,99,-99.99,,,0.26,Acu-Link.com,2013-12-10 02:47:00,
2013-12-09 22:02:00,45.9,45.6,29.92,WSW,247,0.0,-999.0,99,-99.99,,,0.26,Acu-Link.com,2013-12-10 03:02:00,
2013-12-09 22:18:00,45.9,45.6,29.92,West,270,0.0,-999.0,99,-99.99,,,0.26,Acu-Link.com,2013-12-10 03:18:00,
2013-12-09 22:33:00,45.9,45.6,29.91,WSW,247,0.0,-999.0,99,-99.99,,,0.26,Acu-Link.com,2013-12-10 03:33:00,
2013-12-09 22:48:00,45.9,45.6,29.91,West,270,0.0,-999.0,99,-99.99,,,0.26,Acu-Link.com,2013-12-10 03:48:00,
2013-12-09 23:04:00,45.9,45.6,29.91,WSW,247,0.0,-999.0,99,-99.99,,,0.26,Acu-Link.com,2013-12-10 04:04:00,
2013-12-09 23:19:00,45.9,45.6,29.91,ENE,67,0.0,-999.0,99,-99.99,,,0.26,Acu-Link.com,2013-12-10 04:19:00,
2013-12-09 23:34:00,45.9,45.6,29.88,South,180,0.0,-999.0,99,-99.99,,,0.26,Acu-Link.com,2013-12-10 04:34:00,
2013-12-09 23:50:00,46.0,45.7,29.88,South,180,0.0,-999.0,99,-99.99,,,0.26,Acu-Link.com,2013-12-10 04:50:00,